User: anonymous   Login
Location: Guayaquil
(2.1667°S, 79.9000°W)
Time: 17:08:40
(UTC-05:00)
Language:

DNEPR OBJECT AB - Orbit

View from above orbital plane
View from above orbital plane
View from above satellite
View from above satellite

Ground track
Ground track

The orbit data is extracted from the following two-line orbital elements,

1 39441U 13066AB  21338.82792318  .00000413  00000-0  64993-4 0  9997
2 39441  97.7107 297.2563 0082537  55.5495 305.3479 14.75303736432498
Epoch (UTC): 04 December 2021 19:52:12
Eccentricity: 0.0082537
inclination: 97.7107°
perigee height: 586 km
apogee height: 702 km
right ascension of ascending node: 297.2563°
argument of perigee: 55.5495°
revolutions per day: 14.75303736
mean anomaly at epoch: 305.3479°
orbit number at epoch: 43249

The dashed part of the orbit path shows where the satellite is in the earth's shadow,  

DLR